User: anonymous   Login
Location: Caltech
(34.1382°N, 118.1253°W)
Time: 13:38:25
(UTC-07:00)
Language:

ITAMSAT 1 - Orbit

View from above orbital plane
View from above orbital plane
View from above satellite
View from above satellite

Ground track
Ground track

The orbit data is extracted from the following two-line orbital elements,

1 22826U 93061D   15142.43454232  .00000132  00000-0  68375-4 0  9998
2 22826 098.7010 092.7103 0009405 023.2433 336.9173 14.30195840129407
Epoch (UTC): 22 May 2015 10:25:44
Eccentricity: 0.0009405
inclination: 98.7010°
perigee height: 784 km
apogee height: 798 km
right ascension of ascending node: 92.7103°
argument of perigee: 23.2433°
revolutions per day: 14.30195840
mean anomaly at epoch: 336.9173°
orbit number at epoch: 12940

The dashed part of the orbit path shows where the satellite is in the earth's shadow,  

DLR